Voltar ao catálogo

STARLINK-6274

AtivoComunicaçõesVLEO
NORAD 56776·PAYLOAD·🇺🇸 United States

Lançado May 31, 2023 de Vandenberg Space Force Base

Loading…

Próximas Passagens (próximas 24 horas)

TLE

AtualizadoSource: CelesTrak SupGP

Época: Sep 14, 2026, 22:00 UTC

1 56776C 23078K   26257.91715278  .00692480  00000+0  55154-1 0  2579
2 56776  70.0006 207.5216 0002969 267.8474  88.9716 14.99939824    11

Acompanhe STARLINK-6274 em tempo real com AllMySat

Download on the App Store